Date_and_time,latitude,longitude,wind_speed,RelWindDirFrom,WindDirFrom,air_pressure,air_temperature,relative_humidity,Temp,platform_speed_wrt_ground,air_pressure_at_mean_sea_level,platform_orientation
2019-03-11 23:40,50.6304516666667,-96.9807716666667,14.3,20.6,175,988.32,-6.2,79,0.64,0.0,1016.83,73.2
2019-03-11 23:50,50.6304516666667,-96.98077,14.0,18.9,173,988.17,-6.3,79,0.64,0.0,1016.68,73.2
2019-03-12 00:00,50.6304516666667,-96.9807716666667,15.6,20.5,171,987.94,-6.5,79,0.64,0.0,1016.46,90.0
2019-03-12 00:00,50.6304516666667,-96.9807716666667,12.4,12.4,166,987.88,-6.6,79,0.62,0.0,1016.40,305.3
2019-03-12 00:10,50.6304516666667,-96.9807716666667,14.2,18.9,169,987.78,-6.8,80,0.64,0.0,1016.32,305.3
2019-03-12 00:20,50.6304516666667,-96.98077,13.7,17.0,169,987.59,-7.1,81,0.65,0.0,1016.14,305.3
2019-03-12 00:30,50.6304516666667,-96.9807683333333,13.4,17.8,162,987.47,-7.6,84,0.66,0.0,1016.04,305.3
2019-03-12 00:40,50.6304533333333,-96.98077,13.4,16.7,164,987.42,-8.1,85,0.65,0.0,1016.01,305.3
2019-03-12 00:50,50.6304533333333,-96.98077,13.1,18.3,168,987.39,-8.2,85,0.64,0.0,1015.98,305.3
2019-03-12 01:00,50.6304533333333,-96.98077,14.4,17.6,171,987.07,-8.3,86,0.65,0.0,1015.66,38.0
2019-03-12 01:10,50.6304666666667,-96.9807716666667,14.9,20.4,171,986.78,-8.4,87,0.65,0.0,1015.37,38.0
2019-03-12 01:20,50.63042,-96.98076,14.1,18.0,171,986.67,-8.4,88,0.64,0.0,1015.28,38.0
2019-03-12 01:30,50.630445,-96.98077,13.8,18.3,170,986.46,-8.4,89,0.63,0.0,1015.06,38.0
2019-03-12 01:40,50.63045,-96.9807716666667,14.1,18.6,171,986.35,-8.3,89,0.64,0.0,1014.96,38.0
2019-03-12 01:50,50.6304516666667,-96.9807683333333,12.6,17.8,171,986.54,-8.1,89,0.63,0.0,1015.15,38.0
2019-03-12 02:00,50.6304533333333,-96.98077,12.2,17.1,174,986.58,-8.0,89,0.63,0.0,1015.19,90.0
2019-03-12 02:10,50.6304533333333,-96.9807683333333,12.8,16.5,176,986.37,-8.0,90,0.63,0.0,1015.00,90.0
2019-03-12 02:20,50.6304516666667,-96.9807683333333,12.7,17.9,175,986.20,-7.9,90,0.64,0.0,1014.84,90.0
2019-03-12 02:30,50.6304533333333,-96.9807683333333,14.3,19.6,176,985.88,-7.9,90,0.64,0.0,1014.54,90.0
2019-03-12 02:40,50.630455,-96.98077,14.2,17.9,173,985.64,-7.9,90,0.64,0.0,1014.29,90.0
2019-03-12 02:50,50.6304633333333,-96.9807933333333,15.5,20.4,173,985.26,-8.0,90,0.64,0.0,1013.92,90.0
2019-03-12 03:00,50.6304616666667,-96.9807683333333,16.5,21.1,175,984.98,-8.0,91,0.65,0.0,1013.63,14.5
2019-03-12 03:10,50.6304583333333,-96.9807683333333,15.9,19.9,176,984.77,-8.1,91,0.65,0.0,1013.42,14.5
2019-03-12 03:20,50.63046,-96.9807666666667,15.7,21.6,176,984.68,-8.2,91,0.64,0.0,1013.34,14.5
2019-03-12 03:30,50.6304583333333,-96.9807716666667,15.1,20.0,176,984.52,-8.2,91,0.64,0.0,1013.17,14.5
2019-03-12 03:40,50.630455,-96.980775,15.2,20.1,177,984.41,-8.3,92,0.65,0.0,1013.05,14.5
2019-03-12 03:50,50.63046,-96.9807716666667,15.4,20.1,175,984.21,-8.4,92,0.65,0.0,1012.84,14.5
2019-03-12 04:00,50.63046,-96.9807716666667,15.6,22.1,178,984.18,-8.3,92,0.65,0.0,1012.80,347.4
2019-03-12 04:10,50.6304583333333,-96.98077,17.4,22.5,178,983.94,-8.3,92,0.65,0.0,1012.55,347.4
2019-03-12 04:20,50.6304616666667,-96.9807716666667,17.2,22.5,178,983.79,-8.3,92,0.65,0.0,1012.40,347.4
2019-03-12 04:30,50.63047,-96.98077,17.9,23.5,178,983.66,-8.2,92,0.65,0.0,1012.26,347.4
2019-03-12 04:40,50.6304683333333,-96.980775,19.0,23.5,176,983.34,-8.2,92,0.65,0.0,1011.93,347.4
2019-03-12 04:50,50.6304616666667,-96.980775,19.1,25.4,177,983.03,-8.2,93,0.65,0.0,1011.62,347.4
2019-03-12 05:00,50.6304583333333,-96.9807733333333,18.4,23.1,176,982.94,-8.3,93,0.64,0.0,1011.53,347.4
2019-03-12 05:10,50.630455,-96.9807716666667,18.4,24.6,177,982.81,-8.3,93,0.64,0.0,1011.40,347.4
2019-03-12 05:20,50.63046,-96.980765,18.3,23.3,177,982.73,-8.3,93,0.65,0.0,1011.33,347.4
2019-03-12 05:30,50.630455,-96.9807683333333,18.5,23.5,179,982.73,-8.3,93,0.65,0.0,1011.33,347.4
2019-03-12 05:40,50.630455,-96.98077,18.2,23.4,179,982.62,-8.3,93,0.64,0.0,1011.22,347.4
2019-03-12 05:50,50.630455,-96.9807733333333,18.4,22.8,178,982.47,-8.4,94,0.64,0.0,1011.06,347.4
2019-03-12 06:00,50.630455,-96.980775,16.5,21.4,178,982.44,-8.4,94,0.64,0.0,1011.03,360.0
2019-03-12 06:10,50.630455,-96.980775,16.0,20.1,178,982.37,-8.4,94,0.64,0.0,1010.96,360.0
2019-03-12 06:20,50.6304533333333,-96.9807733333333,14.9,17.9,177,982.30,-8.4,94,0.64,0.0,1010.88,360.0
2019-03-12 06:30,50.63045,-96.980775,14.7,20.0,178,982.18,-8.4,94,0.63,0.0,1010.76,360.0
2019-03-12 06:40,50.6304466666667,-96.9807616666667,14.5,19.2,176,982.08,-8.4,94,0.64,0.0,1010.66,360.0
2019-03-12 06:50,50.6304433333333,-96.98077,14.6,19.2,175,981.91,-8.3,94,0.63,0.0,1010.49,360.0
2019-03-12 07:00,50.6304466666667,-96.9807683333333,14.4,18.7,175,981.82,-8.3,94,0.63,0.0,1010.39,165.5
2019-03-12 07:10,50.6304466666667,-96.98077,16.1,20.8,177,981.69,-8.2,93,0.63,0.0,1010.25,165.5
2019-03-12 07:20,50.630445,-96.9807666666667,17.1,22.0,176,981.47,-8.2,93,0.63,0.0,1010.02,165.5
2019-03-12 07:30,50.63045,-96.9807733333333,17.6,21.7,178,981.37,-8.1,92,0.63,0.0,1009.91,165.5
2019-03-12 07:40,50.6304483333333,-96.980775,16.0,20.1,178,981.37,-8.2,92,0.63,0.0,1009.92,165.5
2019-03-12 07:50,50.6304083333333,-96.98077,16.1,22.3,179,981.33,-8.2,92,0.63,0.0,1009.89,165.5
2019-03-12 08:00,50.6304416666667,-96.9807733333333,16.6,22.3,178,981.17,-8.3,92,0.63,0.0,1009.73,360.0
2019-03-12 08:10,50.6304433333333,-96.9807683333333,16.4,21.0,177,981.05,-8.4,92,0.63,0.0,1009.60,360.0
2019-03-12 08:20,50.6304466666667,-96.9807716666667,15.4,18.8,175,981.03,-8.3,92,0.63,0.0,1009.58,360.0
2019-03-12 08:30,50.6304466666667,-96.9807733333333,17.4,22.0,176,980.81,-8.2,92,0.62,0.0,1009.35,360.0
2019-03-12 08:40,50.6304466666667,-96.9807716666667,17.3,21.7,180,980.78,-8.2,92,0.62,0.0,1009.32,360.0
2019-03-12 08:50,50.6304466666667,-96.9807716666667,15.5,20.6,177,980.76,-8.3,92,0.63,0.0,1009.30,360.0
2019-03-12 09:00,50.6304466666667,-96.9807716666667,15.8,20.9,177,980.61,-8.4,92,0.63,0.0,1009.15,142.0
2019-03-12 09:10,50.630445,-96.9807716666667,15.1,18.9,178,980.43,-8.5,93,0.63,0.0,1008.96,142.0
2019-03-12 09:20,50.6304516666667,-96.98077,16.7,21.2,178,980.16,-8.6,94,0.62,0.0,1008.68,142.0
2019-03-12 09:30,50.6304516666667,-96.9807383333333,17.0,21.0,174,979.91,-8.7,94,0.63,0.0,1008.45,142.0
2019-03-12 09:40,50.6304533333333,-96.9807666666667,15.2,21.6,175,979.89,-8.8,95,0.62,0.0,1008.43,142.0
2019-03-12 09:50,50.63045,-96.9807633333333,15.0,19.3,175,979.78,-8.9,96,0.62,0.0,1008.33,142.0
2019-03-12 10:00,50.6304483333333,-96.980765,14.7,18.8,176,979.65,-8.8,96,0.63,0.0,1008.19,0.0
2019-03-12 10:10,50.6304466666667,-96.980765,13.9,17.9,170,979.53,-8.8,96,0.63,0.0,1008.06,0.0
2019-03-12 10:20,50.6304466666667,-96.980765,12.4,18.0,167,979.49,-9.2,98,0.63,0.0,1008.04,0.0
2019-03-12 10:30,50.6304483333333,-96.980765,11.0,14.4,166,979.41,-9.4,98,0.63,0.0,1007.96,0.0
2019-03-12 10:40,50.6304483333333,-96.980765,12.2,15.2,167,979.22,-9.3,99,0.63,0.0,1007.77,0.0
2019-03-12 10:50,50.6304716666667,-96.9807833333333,11.2,14.6,172,979.33,-9.1,99,0.63,0.0,1007.87,0.0
2019-03-12 11:00,50.6304616666667,-96.9807516666667,11.5,16.1,178,979.14,-8.9,98,0.62,0.0,1007.68,360.0
2019-03-12 11:10,50.6304516666667,-96.980765,12.1,16.6,181,979.03,-8.9,98,0.61,0.0,1007.56,360.0
2019-03-12 11:20,50.6304483333333,-96.9807666666667,13.4,17.1,178,978.81,-9.0,98,0.61,0.0,1007.35,360.0
2019-03-12 11:30,50.63045,-96.9807683333333,14.0,16.8,175,978.56,-9.1,98,0.61,0.0,1007.11,360.0
2019-03-12 11:40,50.6304516666667,-96.98077,15.6,20.4,174,978.37,-8.9,98,0.60,0.0,1006.91,360.0
2019-03-12 11:50,50.63045,-96.98077,13.3,16.1,178,978.48,-9.1,98,0.60,0.0,1007.02,360.0
2019-03-12 12:00,50.63045,-96.9807683333333,14.5,18.5,177,978.32,-9.1,99,0.60,0.0,1006.86,12.6
2019-03-12 12:10,50.6304516666667,-96.98077,14.0,17.6,176,978.20,-9.0,99,0.60,0.0,1006.76,12.6
2019-03-12 12:20,50.6304733333333,-96.98079,13.6,17.6,174,978.06,-9.0,99,0.60,0.0,1006.62,12.6
2019-03-12 12:30,50.6304583333333,-96.9807783333333,13.1,16.3,174,977.93,-8.9,99,0.60,0.0,1006.48,12.6
2019-03-12 12:40,50.6304533333333,-96.9807766666667,12.6,16.2,174,977.88,-8.9,99,0.60,0.0,1006.41,12.6
2019-03-12 12:50,50.63045,-96.9807716666667,13.2,16.1,174,977.71,-8.8,99,0.60,0.0,1006.22,12.6
2019-03-12 13:00,50.6304483333333,-96.98077,13.8,19.6,175,977.50,-8.6,99,0.60,0.0,1006.00,0.0
2019-03-12 13:10,50.6304483333333,-96.98077,13.0,15.9,176,977.54,-8.5,99,0.60,0.0,1006.04,0.0
2019-03-12 13:20,50.6304483333333,-96.9807683333333,13.5,17.5,178,977.35,-8.4,99,0.60,0.0,1005.84,0.0
2019-03-12 13:30,50.6304366666667,-96.9807683333333,13.9,17.4,177,977.28,-8.3,99,0.60,0.0,1005.75,0.0
2019-03-12 13:40,50.6304466666667,-96.9807666666667,12.9,17.9,175,977.21,-8.1,99,0.60,0.0,1005.68,0.0
2019-03-12 13:50,50.6304466666667,-96.980765,11.7,15.8,179,977.26,-7.9,98,0.60,0.0,1005.73,0.0
2019-03-12 14:00,50.6304483333333,-96.980765,12.4,18.2,177,977.14,-7.6,98,0.60,0.0,1005.58,183.2
2019-03-12 14:10,50.63045,-96.980765,11.3,16.0,178,977.08,-7.3,97,0.60,0.0,1005.50,183.2
2019-03-12 14:20,50.63045,-96.980765,13.3,18.5,179,976.96,-7.0,96,0.60,0.0,1005.35,183.2
2019-03-12 14:30,50.63045,-96.9807666666667,13.9,18.5,181,976.96,-6.8,96,0.60,0.0,1005.33,183.2
2019-03-12 14:40,50.6304516666667,-96.9807683333333,14.5,18.7,182,976.88,-6.6,96,0.59,0.0,1005.25,183.2
2019-03-12 14:50,50.6304516666667,-96.9807683333333,16.4,22.0,182,976.74,-6.5,96,0.59,0.0,1005.09,183.2
2019-03-12 15:00,50.6304516666667,-96.9807683333333,16.8,23.9,183,976.79,-6.4,96,0.60,0.0,1005.13,0.0
2019-03-12 15:10,50.6304516666667,-96.9807683333333,16.3,22.2,182,976.84,-6.3,95,0.59,0.0,1005.16,0.0
2019-03-12 15:20,50.6304516666667,-96.9807683333333,16.1,21.3,182,976.85,-6.2,95,0.58,0.0,1005.16,0.0
2019-03-12 15:30,50.6304516666667,-96.9807683333333,15.1,20.0,182,976.80,-6.0,94,0.59,0.0,1005.09,0.0
2019-03-12 15:40,50.6304516666667,-96.9807666666667,15.9,20.4,180,976.67,-5.7,92,0.60,0.0,1004.93,0.0
2019-03-12 15:50,50.6304766666667,-96.9808133333333,15.0,21.9,179,976.69,-5.3,90,0.60,0.0,1004.92,0.0
2019-03-12 16:00,50.6304566666667,-96.9807766666667,16.6,23.3,178,976.40,-5.1,90,0.59,0.0,1004.59,311.7
2019-03-12 16:10,50.630455,-96.980775,17.4,23.5,178,976.19,-4.8,88,0.59,0.0,1004.35,311.7
2019-03-12 16:20,50.6304533333333,-96.9807716666667,15.4,21.3,180,976.14,-4.5,86,0.59,0.0,1004.26,311.7
2019-03-12 16:30,50.6304483333333,-96.9807783333333,15.4,22.0,181,975.91,-4.3,85,0.60,0.0,1004.01,311.7
2019-03-12 16:40,50.6304516666667,-96.9807733333333,15.2,21.5,181,975.78,-4.2,84,0.60,0.0,1003.86,311.7
2019-03-12 16:50,50.6304516666667,-96.9807716666667,14.9,20.5,178,975.64,-3.8,82,0.60,0.0,1003.69,311.7
2019-03-12 17:00,50.6304516666667,-96.9807716666667,15.6,20.1,180,975.58,-3.6,80,0.60,0.0,1003.61,347.4
2019-03-12 17:10,50.6304516666667,-96.9807733333333,15.3,21.1,178,975.55,-3.5,79,0.60,0.0,1003.56,347.4
2019-03-12 17:20,50.6304516666667,-96.9807716666667,14.3,18.4,183,975.43,-3.3,78,0.60,0.0,1003.43,347.4
2019-03-12 17:30,50.6304516666667,-96.9807716666667,11.7,14.2,188,975.41,-3.1,77,0.60,0.0,1003.38,347.4
2019-03-12 17:40,50.6304516666667,-96.98077,13.5,17.8,178,975.15,-2.9,76,0.61,0.0,1003.08,347.4
2019-03-12 17:50,50.63045,-96.980765,13.3,17.4,179,975.03,-2.7,75,0.61,0.0,1002.93,347.4
2019-03-12 18:00,50.6304533333333,-96.980765,12.0,15.3,168,974.91,-2.6,78,0.60,0.0,1002.80,90.0
2019-03-12 18:10,50.6304366666667,-96.9807616666667,11.5,14.8,167,974.74,-2.4,77,0.61,0.0,1002.60,90.0
2019-03-12 18:20,50.630445,-96.9807716666667,13.4,19.9,172,974.50,-2.0,72,0.61,0.0,1002.31,90.0
2019-03-12 18:30,50.6304366666667,-96.9807466666667,13.7,19.0,177,974.41,-1.9,71,0.61,0.0,1002.21,90.0
2019-03-12 18:40,50.6304483333333,-96.9807633333333,11.1,15.9,185,974.46,-1.6,70,0.62,0.0,1002.23,90.0
2019-03-12 18:50,50.6304466666667,-96.980765,9.6,12.8,184,974.36,-1.4,70,0.63,0.0,1002.09,90.0
2019-03-12 19:00,50.6304683333333,-96.9808033333333,12.9,16.3,187,974.20,-1.1,67,0.63,0.0,1001.92,309.1
2019-03-12 19:10,50.63045,-96.9807766666667,14.6,18.4,183,974.04,-1.0,65,0.62,0.0,1001.73,309.1
2019-03-12 19:20,50.6304466666667,-96.980775,14.7,20.9,185,973.97,-0.9,66,0.62,0.0,1001.65,309.1
2019-03-12 19:30,50.63045,-96.9807766666667,15.4,19.9,183,973.87,-1.2,67,0.63,0.0,1001.55,309.1
2019-03-12 19:40,50.6304483333333,-96.980745,14.8,18.3,184,973.75,-1.2,68,0.62,0.0,1001.41,309.1
2019-03-12 19:50,50.6304516666667,-96.9807666666667,14.4,20.1,186,973.69,-1.1,69,0.62,0.0,1001.35,309.1
2019-03-12 20:00,50.6304366666667,-96.9807833333333,13.1,16.8,188,973.81,-1.2,71,0.63,0.0,1001.46,183.2
2019-03-12 20:10,50.630445,-96.98078,13.1,17.2,187,973.77,-1.2,71,0.63,0.0,1001.40,183.2
2019-03-12 20:20,50.6304466666667,-96.98078,11.9,15.0,187,973.75,-0.8,69,0.63,0.0,1001.35,183.2
2019-03-12 20:30,50.630445,-96.9807816666667,13.1,16.3,186,973.62,-0.6,68,0.63,0.0,1001.19,183.2
2019-03-12 20:40,50.630445,-96.9807783333333,12.2,15.3,188,973.57,-0.4,68,0.64,0.0,1001.12,183.2
2019-03-12 20:50,50.630445,-96.980775,12.6,16.2,185,973.45,-0.3,69,0.63,0.0,1000.98,183.2
2019-03-12 21:00,50.6304433333333,-96.9807766666667,12.9,17.1,182,973.34,-0.2,69,0.64,0.0,1000.85,194.5
2019-03-12 21:10,50.6304433333333,-96.9807766666667,11.1,13.7,187,973.34,0.0,69,0.65,0.0,1000.84,194.5
2019-03-12 21:20,50.6304333333333,-96.9807533333333,12.9,18.0,181,973.18,0.1,69,0.65,0.0,1000.68,194.5
2019-03-12 21:30,50.6304366666667,-96.980765,13.9,18.4,176,973.01,0.1,69,0.66,0.0,1000.50,194.5
2019-03-12 21:40,50.63044,-96.98077,11.4,14.1,159,972.98,0.3,71,0.66,0.0,1000.47,194.5
2019-03-12 21:50,50.63044,-96.9807716666667,15.7,22.0,174,972.85,0.5,69,0.66,0.0,1000.32,194.5
2019-03-12 22:00,50.63044,-96.9807733333333,14.3,20.2,184,973.00,0.8,67,0.67,0.0,1000.46,140.5
2019-03-12 22:10,50.6304383333333,-96.9807716666667,14.0,17.3,186,973.06,0.7,68,0.67,0.0,1000.51,140.5
2019-03-12 22:20,50.630425,-96.9807583333333,13.0,18.0,182,973.11,0.7,70,0.67,0.0,1000.55,140.5
2019-03-12 22:30,50.6304433333333,-96.9807616666667,13.5,17.4,178,973.02,0.6,71,0.67,0.0,1000.46,140.5
2019-03-12 22:40,50.6304433333333,-96.9807616666667,11.9,16.0,181,973.00,0.4,74,0.68,0.0,1000.44,140.5
2019-03-12 22:50,50.6304383333333,-96.9807633333333,11.5,15.1,183,972.93,0.4,75,0.68,0.0,1000.36,140.5
2019-03-12 23:00,50.6304383333333,-96.980755,12.3,15.9,183,972.78,0.3,76,0.68,0.0,1000.20,72.3
2019-03-12 23:10,50.6304383333333,-96.9807566666667,11.4,18.4,187,972.84,0.2,77,0.68,0.0,1000.27,72.3
2019-03-12 23:20,50.63044,-96.9807583333333,11.5,15.0,190,972.83,0.0,81,0.68,0.0,1000.27,72.3
2019-03-12 23:30,50.6304416666667,-96.9807616666667,11.4,14.2,184,972.72,-0.3,85,0.69,0.0,1000.16,72.3
2019-03-12 23:40,50.6304433333333,-96.9807633333333,11.4,13.9,182,972.65,-0.6,88,0.70,0.0,1000.09,72.3
2019-03-12 23:50,50.6304433333333,-96.980765,10.6,13.3,181,972.59,-0.7,89,0.69,0.0,1000.02,72.3
